This is the latest recevied weather packets stored in our database for station/object SP8NFE-1. If no packets are shown the sender has not sent any weather packets the latest 1 day(s).
| Time | Temp. | Humidity | Pressure | Rain* | Wind** | Luminosity | Snow |
|---|---|---|---|---|---|---|---|
| 1777964411 | 20° C | 37% | 0 hPa | 0 mm | 0 m/s | - | - |
| 1777964111 | 20° C | 38% | 0 hPa | 0 mm | 0 m/s | - | - |
| 1777963811 | 19.44° C | 39% | 0 hPa | 0 mm | 0 m/s | - | - |
| 1777963211 | 19.44° C | 43% | 0 hPa | 0 mm | 0 m/s | - | - |
| 1777962911 | 18.89° C | 43% | 0 hPa | 0 mm | 0 m/s | - | - |
| 1777962616 | 18.89° C | 43% | 0 hPa | 0 mm | 0 m/s | - | - |
| 1777962311 | 18.33° C | 46% | 0 hPa | 0 mm | 0 m/s | - | - |
| 1777962011 | 17.78° C | 48% | 0 hPa | 0 mm | 0 m/s | - | - |
| 1777961713 | 17.22° C | 49% | 0 hPa | 0 mm | 0 m/s | - | - |
| 1777961411 | 16.67° C | 54% | 0 hPa | 0 mm | 0 m/s | - | - |
| 1777961111 | 15.56° C | 63% | 0 hPa | 0 mm | 0 m/s | - | - |
| 1777960811 | 15° C | 67% | 0 hPa | 0 mm | 0 m/s | - | - |
| 1777960511 | 15° C | 67% | 0 hPa | 0 mm | 0 m/s | - | - |
| 1777960211 | 14.44° C | 80% | 0 hPa | 0 mm | 0 m/s | - | - |
| 1777959911 | 13.89° C | 86% | 0 hPa | 0 mm | 0 m/s | - | - |
| 1777959611 | 13.33° C | 89% | 0 hPa | 0 mm | 0 m/s | - | - |
| 1777959311 | 12.78° C | 94% | 0 hPa | 0 mm | 0 m/s | - | - |
| 1777959012 | 12.22° C | 95% | 0 hPa | 0 mm | 0 m/s | - | - |
| 1777958712 | 11.67° C | 97% | 0 hPa | 0 mm | 0 m/s | - | - |
| 1777958412 | 10.56° C | 98% | 0 hPa | 0 mm | 0 m/s | - | - |
| 1777958112 | 10° C | 99% | 0 hPa | 0 mm | 0 m/s | - | - |
| 1777957812 | 9.44° C | 100% | 0 hPa | 0 mm | 0 m/s | - | - |
| 1777957512 | 8.33° C | 100% | 0 hPa | 0 mm | 0 m/s | - | - |
| 1777957212 | 7.78° C | 100% | 0 hPa | 0 mm | 0 m/s | - | - |
| 1777956912 | 7.22° C | 100% | 0 hPa | 0 mm | 0 m/s | - | - |
* Rain latest hour (hover to see other rain measurements)
** Current wind speed in m/s (hover to see current wind gust speed)